EN

Hourly Weather Bartoszowka

Today, 24 January, Sunday

Time Temperature Precipitation Wind Pressure Humidity
00:00 0°C° 0.2 mm 0 mps 674 mmHg 97%
01:00 0°C° 0.2 mm 0 mps 674 mmHg 98%
02:00 +1°C° 0.2 mm 1 mps 674 mmHg 98%
03:00 +1°C° 0.2 mm 1 mps 674 mmHg 98%
04:00 +1°C° 0.2 mm 1 mps 673 mmHg 98%
05:00 0°C° 0.8 mm 1 mps 673 mmHg 98%
06:00 0°C° 0.8 mm 1 mps 673 mmHg 98%
07:00 0°C° 0.8 mm 1 mps 674 mmHg 98%
08:00 0°C° 0.4 mm 1 mps 674 mmHg 97%
09:00 0°C° 0.4 mm 1 mps 674 mmHg 96%
10:00 0°C° 0.4 mm 1 mps 674 mmHg 95%
11:00 0°C° 0.2 mm 1 mps 674 mmHg 96%
12:00 0°C° 0.2 mm 1 mps 674 mmHg 96%
13:00 0°C° 0.2 mm 1 mps 674 mmHg 96%
14:00 -1°C° 0.4 mm 1 mps 674 mmHg 97%
15:00 -1°C° 0.4 mm 1 mps 674 mmHg 97%
16:00 -2°C° 0.4 mm 1 mps 674 mmHg 97%
17:00 -2°C° 0.2 mm 1 mps 675 mmHg 97%
18:00 -2°C° 0.2 mm 1 mps 675 mmHg 97%
19:00 -3°C° 0.2 mm 1 mps 675 mmHg 97%
20:00 -4°C° 0.1 mm 0 mps 675 mmHg 97%
21:00 -4°C° 0.1 mm 0 mps 675 mmHg 96%
22:00 -4°C° 0.1 mm 0 mps 675 mmHg 96%
23:00 -5°C° 0 mm 0 mps 675 mmHg 96%

Tomorrow, 25 January, Monday

Time Temperature Precipitation Wind Pressure Humidity
00:00 -5°C° 0 mm 0 mps 675 mmHg 95%
01:00 -5°C° 0 mm 0 mps 675 mmHg 95%
02:00 -5°C° 0 mm 0 mps 675 mmHg 95%
03:00 -6°C° 0 mm 0 mps 675 mmHg 95%
04:00 -6°C° 0 mm 0 mps 675 mmHg 94%
05:00 -4°C° 0 mm 1 mps 676 mmHg 95%
06:00 -4°C° 0 mm 1 mps 676 mmHg 95%
07:00 -4°C° 0 mm 1 mps 676 mmHg 95%
08:00 -4°C° 0.1 mm 1 mps 676 mmHg 94%
09:00 -5°C° 0.1 mm 2 mps 677 mmHg 93%
10:00 -5°C° 0.1 mm 2 mps 677 mmHg 92%
11:00 -6°C° 0.1 mm 3 mps 677 mmHg 91%
12:00 -6°C° 0.1 mm 3 mps 677 mmHg 90%
13:00 -5°C° 0.1 mm 4 mps 677 mmHg 90%
14:00 -7°C° 0.2 mm 4 mps 677 mmHg 91%
15:00 -7°C° 0.2 mm 4 mps 677 mmHg 92%
16:00 -7°C° 0.2 mm 4 mps 678 mmHg 93%
17:00 -7°C° 0.1 mm 4 mps 678 mmHg 92%
18:00 -8°C° 0.1 mm 4 mps 678 mmHg 91%
19:00 -8°C° 0.1 mm 4 mps 679 mmHg 90%
20:00 -8°C° 0.1 mm 4 mps 679 mmHg 90%
21:00 -8°C° 0.1 mm 4 mps 679 mmHg 91%
22:00 -8°C° 0.1 mm 4 mps 680 mmHg 91%
23:00 -9°C° 0 mm 4 mps 680 mmHg 90%

Day after tomorrow, 26 January, Tuesday

Time Temperature Precipitation Wind Pressure Humidity
00:00 -9°C° 0 mm 4 mps 680 mmHg 90%
01:00 -9°C° 0 mm 4 mps 680 mmHg 90%
02:00 -9°C° 0 mm 4 mps 680 mmHg 90%
03:00 -9°C° 0 mm 4 mps 680 mmHg 89%
04:00 -10°C° 0 mm 4 mps 680 mmHg 88%
05:00 -9°C° 0 mm 3 mps 680 mmHg 87%
06:00 -9°C° 0 mm 3 mps 680 mmHg 86%
07:00 -10°C° 0 mm 3 mps 681 mmHg 85%
08:00 -9°C° 0 mm 3 mps 681 mmHg 81%
09:00 -8°C° 0 mm 3 mps 681 mmHg 77%
10:00 -8°C° 0 mm 4 mps 682 mmHg 73%
11:00 -8°C° 0 mm 4 mps 682 mmHg 72%
12:00 -7°C° 0 mm 4 mps 682 mmHg 72%
13:00 -7°C° 0 mm 4 mps 683 mmHg 71%
14:00 -7°C° 0 mm 4 mps 683 mmHg 76%
15:00 -7°C° 0 mm 3 mps 683 mmHg 80%
16:00 -7°C° 0 mm 3 mps 683 mmHg 85%
17:00 -7°C° 0.2 mm 3 mps 683 mmHg 87%
18:00 -8°C° 0.2 mm 3 mps 684 mmHg 90%
19:00 -8°C° 0.2 mm 3 mps 684 mmHg 92%
20:00 -8°C° 0.1 mm 3 mps 684 mmHg 91%
21:00 -8°C° 0.1 mm 3 mps 684 mmHg 90%
22:00 -9°C° 0.1 mm 3 mps 684 mmHg 88%
23:00 -8°C° 0 mm 2 mps 684 mmHg 87%

27 January, Wednesday

Time Temperature Precipitation Wind Pressure Humidity
00:00 -9°C° 0 mm 2 mps 684 mmHg 87%
01:00 -9°C° 0 mm 2 mps 684 mmHg 86%
02:00 -9°C° 0 mm 2 mps 684 mmHg 85%
03:00 -10°C° 0 mm 2 mps 683 mmHg 85%
04:00 -10°C° 0 mm 2 mps 683 mmHg 84%
05:00 -10°C° 0 mm 2 mps 683 mmHg 84%
06:00 -10°C° 0 mm 2 mps 683 mmHg 83%
07:00 -10°C° 0 mm 2 mps 683 mmHg 83%
08:00 -9°C° 0 mm 2 mps 683 mmHg 80%
09:00 -8°C° 0 mm 2 mps 684 mmHg 78%
10:00 -4°C° 0 mm 1 mps 684 mmHg 75%
11:00 -3°C° 0 mm 1 mps 684 mmHg 74%
12:00 -2°C° 0 mm 1 mps 684 mmHg 74%
13:00 -1°C° 0 mm 1 mps 684 mmHg 73%
14:00 -2°C° 0.1 mm 1 mps 684 mmHg 78%
15:00 -2°C° 0.1 mm 1 mps 683 mmHg 83%
16:00 -3°C° 0.1 mm 1 mps 683 mmHg 89%
17:00 -3°C° 0.1 mm 1 mps 683 mmHg 90%
18:00 -3°C° 0.1 mm 1 mps 683 mmHg 92%
19:00 -4°C° 0.1 mm 1 mps 683 mmHg 93%
20:00 -4°C° 0.2 mm 1 mps 683 mmHg 94%
21:00 -4°C° 0.2 mm 1 mps 683 mmHg 95%
22:00 -4°C° 0.2 mm 1 mps 684 mmHg 96%
23:00 -4°C° 0.2 mm 1 mps 684 mmHg 97%

28 January, Thursday

Time Temperature Precipitation Wind Pressure Humidity
00:00 -4°C° 0.2 mm 1 mps 684 mmHg 97%
01:00 -4°C° 0.2 mm 1 mps 684 mmHg 97%
02:00 -4°C° 0.2 mm 1 mps 684 mmHg 97%
03:00 -4°C° 0.2 mm 1 mps 684 mmHg 97%
04:00 -4°C° 0.2 mm 1 mps 684 mmHg 97%
05:00 -6°C° 0.1 mm 1 mps 685 mmHg 96%
06:00 -6°C° 0.1 mm 1 mps 685 mmHg 96%
07:00 -6°C° 0.1 mm 1 mps 685 mmHg 96%
08:00 -6°C° 0 mm 1 mps 685 mmHg 93%
09:00 -4°C° 0 mm 1 mps 685 mmHg 89%
10:00 -3°C° 0 mm 1 mps 685 mmHg 86%
11:00 -2°C° 0 mm 1 mps 685 mmHg 83%
12:00 -1°C° 0 mm 1 mps 685 mmHg 80%
13:00 -1°C° 0 mm 1 mps 685 mmHg 78%
14:00 -1°C° 0.2 mm 1 mps 684 mmHg 84%
15:00 -2°C° 0.2 mm 1 mps 684 mmHg 90%
16:00 -2°C° 0.2 mm 1 mps 683 mmHg 96%
17:00 -2°C° 0.5 mm 1 mps 683 mmHg 96%
18:00 -2°C° 0.5 mm 1 mps 682 mmHg 96%
19:00 -2°C° 0.5 mm 1 mps 682 mmHg 96%

29 January, Friday

Time Temperature Precipitation Wind Pressure Humidity
Show more

We Need Your Consent

Meteoprog and our Service Providers may store and access personal data such as cookies, device identifiers or other similar technologies on your device and process such data to personalise content and ads, as well as provide social media features and to analyse the traffic.

  • Store and/or access information on your device

    Cookies, device identifiers or other information can be stored or accessed on your device for the purposes indicated above.

  • Personalised ads and content, ad and content measurement, audience insights, and products development

    Ads and content can be personalised based on a profile. More data can be added to better personalise ads and content. Ad and content performance can be measured. Insights about the audience who saw the ads and content can be derived. Such data can be used to develop or improve user’s experience, systems and software.

By clicking ‘I Agree’ you will allow the use of indicated cookies, device identifiers, web beacons or other similar technologies. Your settings can be changed in the browser on your device.

For certain purposes, legitimate interests may be relied on, rather than consent. You can read more about this in our Privacy and Cookie Policy.